"2005/01/01",1007.2,1014.8,1000.6
"2005/01/02",1019.5,1022.7,1014.6
"2005/01/03",1018.8,1022.6,1013.1
"2005/01/04",1006.8,1013.1,1001.9
"2005/01/05",1020.6,1027.4,1011.8
"2005/01/06",1022.9,1027.4,1015.4
"2005/01/07",1009.8,1015.4,1004.8
"2005/01/08",1015.7,1017.7,1012.5
"2005/01/09",1011.8,1015.3,1007.8
"2005/01/10",1013.6,1017.2,1009.7
"2005/01/11",1009.7,1011.4,1007.8
"2005/01/12",1007.8,1013.2,1004.7
"2005/01/13",1013.8,1016.4,1012.0
"2005/01/14",1018.7,1021.5,1016.3
"2005/01/15",1014.3,1019.9,1004.1
"2005/01/16", 997.1,1004.6, 992.4
"2005/01/17",1004.7,1011.9, 998.8
"2005/01/18",1015.7,1018.2,1011.8
"2005/01/19",1015.2,1017.9,1011.6
"2005/01/20",1009.9,1011.7,1007.4
"2005/01/21",1015.2,1019.7,1010.8
"2005/01/22",1021.4,1024.8,1018.8
"2005/01/23",1022.5,1024.8,1019.9
"2005/01/24",1015.1,1021.6,1006.0
"2005/01/25",1008.3,1010.1,1005.6
"2005/01/26",1010.2,1013.4,1008.3
"2005/01/27",1013.3,1016.4,1010.7
"2005/01/28",1013.5,1015.9,1010.7
"2005/01/29",1008.9,1015.9, 995.5
"2005/01/30",1001.2,1005.4, 993.8
"2005/01/31", 999.2,1004.8, 994.5
"2005/02/01", 990.8, 994.7, 986.3
"2005/02/02",1001.8,1008.2, 994.6
"2005/02/03",1010.0,1013.4,1007.6
"2005/02/04",1011.1,1013.6,1008.6
"2005/02/05",1010.1,1014.2,1008.0
"2005/02/06",1018.8,1023.4,1013.9
"2005/02/07",1025.7,1027.8,1023.4
"2005/02/08",1022.4,1025.8,1018.9
"2005/02/09",1021.6,1025.5,1014.7
"2005/02/10",1011.3,1017.9,1007.2
"2005/02/11",1020.9,1022.9,1017.7
"2005/02/12",1023.6,1025.6,1021.6
"2005/02/13",1021.5,1024.4,1018.7
"2005/02/14",1025.4,1027.7,1021.6
"2005/02/15",1023.9,1025.9,1021.1
"2005/02/16",1017.3,1024.2,1010.6
"2005/02/17",1015.1,1022.4,1010.2
"2005/02/18",1025.7,1027.8,1022.3
"2005/02/19",1015.8,1025.5,1002.7
"2005/02/20",1006.0,1012.8,1000.8
"2005/02/21",1014.7,1016.8,1012.7
"2005/02/22",1018.3,1020.2,1016.1
"2005/02/23",1008.7,1016.2,1002.7
"2005/02/24",1012.9,1015.5,1008.9
"2005/02/25",1007.8,1009.6,1005.3
"2005/02/26",1012.5,1017.5,1008.0
"2005/02/27",1019.1,1020.8,1017.4
"2005/02/28",1016.8,1019.9,1013.3
"2005/03/01",1019.5,1022.8,1016.5
"2005/03/02",1022.0,1024.1,1019.4
"2005/03/03",1024.4,1026.1,1022.8
"2005/03/04",1015.7,1023.0,1011.6
"2005/03/05",1018.4,1021.5,1014.6
"2005/03/06",1019.9,1021.9,1017.5
"2005/03/07",1021.5,1024.3,1019.2
"2005/03/08",1017.6,1020.0,1015.3
"2005/03/09",1017.3,1021.9,1013.3
"2005/03/10",1019.3,1022.3,1015.8
"2005/03/11",1006.0,1015.9, 994.4
"2005/03/12", 997.7,1005.6, 993.7
"2005/03/13",1007.4,1010.4,1005.4
"2005/03/14",1015.4,1023.3,1010.3
"2005/03/15",1024.9,1027.2,1023.2
"2005/03/16",1023.0,1024.9,1021.5
"2005/03/17",1012.7,1023.7, 999.5
"2005/03/18",1003.3,1013.3, 997.8
"2005/03/19",1020.3,1023.3,1013.2
"2005/03/20",1017.4,1022.9,1011.7
"2005/03/21",1017.6,1021.7,1011.6
"2005/03/22",1014.7,1020.3,1007.4
"2005/03/23",1004.0,1007.5,1000.3
"2005/03/24",1003.4,1008.9, 990.3
"2005/03/25",1003.4,1012.0, 989.9
"2005/03/26",1015.4,1020.3,1011.7
"2005/03/27",1018.9,1022.1,1015.9
"2005/03/28",1011.0,1017.5, 997.2
"2005/03/29", 999.7,1003.8, 996.0
"2005/03/30",1004.9,1009.1,1002.7
"2005/03/31",1011.4,1015.1,1008.7
"2005/04/01",1019.0,1022.6,1015.0
"2005/04/02",1020.8,1023.7,1016.0
"2005/04/03",1008.5,1016.4,1003.9
"2005/04/04",1011.2,1017.7,1005.6
"2005/04/05",1016.6,1019.2,1013.5
"2005/04/06",1013.9,1016.5,1011.1
"2005/04/07",1009.2,1013.1,1004.0
"2005/04/08",1008.7,1015.7,1002.4
"2005/04/09",1018.8,1020.9,1015.5
"2005/04/10",1013.9,1020.3,1007.2
"2005/04/11",1012.3,1016.6,1006.5
"2005/04/12",1014.0,1016.6,1009.8
"2005/04/13",1008.5,1013.3,1006.2
"2005/04/14",1017.8,1020.4,1013.1
"2005/04/15",1017.7,1020.3,1014.5
"2005/04/16",1018.7,1021.5,1016.4
"2005/04/17",1019.6,1024.0,1015.7
"2005/04/18",1027.8,1030.3,1023.7
"2005/04/19",1027.9,1029.8,1026.5
"2005/04/20",1020.6,1028.4,1009.2
"2005/04/21",1004.6,1009.3,1001.4
"2005/04/22",1005.6,1011.8,1001.8
"2005/04/23",1014.4,1018.8,1011.4
"2005/04/24",1022.2,1024.6,1018.6
"2005/04/25",1017.4,1023.3,1012.2
"2005/04/26",1008.0,1012.3,1003.2
"2005/04/27",1011.3,1013.4,1009.3
"2005/04/28",1005.2,1009.6,1001.4
"2005/04/29",1002.8,1007.1, 999.8
"2005/04/30",1011.8,1014.1,1007.1
"2005/05/01",1010.1,1013.4,1005.9
"2005/05/02",1004.3,1011.5,1001.3
"2005/05/03",1013.7,1015.8,1011.2
"2005/05/04",1010.6,1013.7,1007.8
"2005/05/05",1010.7,1012.9,1008.3
"2005/05/06",1011.1,1013.1,1007.6
"2005/05/07",1002.5,1007.7, 998.5
"2005/05/08",1007.5,1010.3,1003.0
"2005/05/09",1000.1,1003.1, 996.7
"2005/05/10",1006.2,1013.8,1000.1
"2005/05/11",1015.9,1018.3,1013.7
"2005/05/12",1010.2,1013.9,1006.9
"2005/05/13",1011.7,1017.9,1006.7
"2005/05/14",1018.2,1019.7,1017.1
"2005/05/15",1013.1,1017.6,1009.1
"2005/05/16",1015.7,1021.3,1011.9
"2005/05/17",1020.9,1022.5,1018.7
"2005/05/18",1011.7,1018.8,1005.9
"2005/05/19",1006.3,1011.1,1004.1
"2005/05/20",1012.9,1014.4,1011.0
"2005/05/21",1012.0,1013.6,1010.0
"2005/05/22",1007.2,1011.3,1002.7
"2005/05/23",1003.1,1004.9,1001.2
"2005/05/24",1007.4,1011.8,1003.1
"2005/05/25",1014.8,1017.9,1011.7
"2005/05/26",1017.3,1018.6,1015.8
"2005/05/27",1016.2,1017.9,1013.4
"2005/05/28",1018.1,1021.5,1016.6
"2005/05/29",1021.6,1023.1,1019.9
"2005/05/30",1014.7,1020.0,1006.5
"2005/05/31",1003.4,1006.9,1000.5
"2005/06/01",1008.8,1010.7,1006.5
"2005/06/02",1009.6,1010.7,1007.6
"2005/06/03",1005.2,1007.7,1003.7
"2005/06/04",1005.7,1007.1,1004.0
"2005/06/05",1008.6,1012.6,1005.4
"2005/06/06",1015.0,1018.9,1011.8
"2005/06/07",1019.9,1021.2,1018.4
"2005/06/08",1018.8,1020.8,1016.8
"2005/06/09",1013.8,1016.9,1011.1
"2005/06/10",1006.1,1011.6,1000.5
"2005/06/11", 998.8,1000.5, 996.9
"2005/06/12",1000.0,1002.8, 996.6
"2005/06/13",1006.6,1010.2,1002.3
"2005/06/14",1012.4,1013.9,1010.1
"2005/06/15",1010.3,1012.7,1008.2
"2005/06/16",1010.8,1013.6,1008.9
"2005/06/17",1009.5,1010.5,1008.6
"2005/06/18",1007.6,1009.7,1005.6
"2005/06/19",1005.9,1007.5,1003.9
"2005/06/20",1004.5,1007.5,1002.5
"2005/06/21",1008.0,1009.6,1006.3
"2005/06/22",1005.6,1008.2,1001.0
"2005/06/23",1005.8,1007.5,1003.9
"2005/06/24",1005.5,1007.4,1004.3
"2005/06/25",1007.1,1008.5,1005.3
"2005/06/26",1007.7,1008.9,1006.3
"2005/06/27",1003.9,1007.4,1000.2
"2005/06/28",1002.3,1006.6, 999.4
"2005/06/29",1008.9,1010.9,1005.7
"2005/06/30",1009.5,1010.9,1008.0
"2005/07/01",1006.4,1009.9,1002.2
"2005/07/02",1004.0,1008.6,1001.0
"2005/07/03",1007.8,1008.9,1006.2
"2005/07/04",1000.9,1006.3, 996.6
"2005/07/05", 998.8,1002.1, 996.3
"2005/07/06",1002.0,1004.5,1000.4
"2005/07/07",1005.7,1007.9,1004.0
"2005/07/08",1011.1,1014.5,1007.4
"2005/07/09",1012.4,1014.9,1006.5
"2005/07/10",1003.0,1006.5,1001.1
"2005/07/11",1004.6,1006.1,1003.2
"2005/07/12",1005.7,1010.8,1003.2
"2005/07/13",1014.3,1016.7,1010.6
"2005/07/14",1016.3,1017.5,1015.3
"2005/07/15",1017.8,1019.0,1016.5
"2005/07/16",1016.9,1018.6,1014.8
"2005/07/17",1014.2,1015.7,1012.1
"2005/07/18",1010.6,1013.2,1007.1
"2005/07/19",1006.4,1008.0,1004.6
"2005/07/20",1007.5,1008.7,1006.5
"2005/07/21",1006.9,1008.0,1005.1
"2005/07/22",1008.4,1010.7,1006.4
"2005/07/23",1010.2,1011.2,1009.1
"2005/07/24",1010.0,1010.9,1009.1
"2005/07/25",1008.4,1009.6,1006.8
"2005/07/26", 994.4,1006.9, 982.1
"2005/07/27", 996.1,1004.0, 984.0
"2005/07/28",1006.6,1008.9,1003.9
"2005/07/29",1007.1,1008.6,1005.1
"2005/07/30",1008.0,1009.4,1006.8
"2005/07/31",1009.3,1010.4,1008.0
"2005/08/01",1010.0,1010.8,1008.7
"2005/08/02",1010.2,1011.5,1009.2
"2005/08/03",1010.5,1012.2,1008.8
"2005/08/04",1012.0,1013.5,1010.9
"2005/08/05",1012.1,1013.1,1010.8
"2005/08/06",1011.2,1012.2,1009.8
"2005/08/07",1010.9,1012.1,1008.8
"2005/08/08",1011.5,1012.8,1009.3
"2005/08/09",1011.8,1013.3,1010.7
"2005/08/10",1008.6,1010.8,1006.4
"2005/08/11",1010.5,1012.0,1008.4
"2005/08/12",1010.9,1012.9,1008.4
"2005/08/13",1008.6,1009.8,1007.3
"2005/08/14",1006.2,1009.0,1002.8
"2005/08/15", 999.6,1002.9, 996.7
"2005/08/16",1004.3,1008.7,1000.1
"2005/08/17",1010.4,1012.7,1008.2
"2005/08/18",1012.2,1013.6,1010.5
"2005/08/19",1010.4,1012.1,1008.1
"2005/08/20",1009.5,1010.5,1008.0
"2005/08/21",1010.5,1011.7,1009.4
"2005/08/22",1010.1,1011.8,1008.1
"2005/08/23",1009.6,1012.8,1007.6
"2005/08/24",1014.6,1016.5,1012.1
"2005/08/25",1013.0,1015.9,1007.1
"2005/08/26",1002.8,1007.9, 992.5
"2005/08/27",1009.0,1010.1,1007.5
"2005/08/28",1010.0,1011.0,1008.6
"2005/08/29",1011.5,1013.0,1010.2
"2005/08/30",1012.2,1013.5,1010.5
"2005/08/31",1014.2,1016.2,1012.1
"2005/09/01",1016.5,1017.4,1015.5
"2005/09/02",1015.2,1016.7,1013.3
"2005/09/03",1013.6,1014.6,1011.8
"2005/09/04",1014.6,1015.6,1013.7
"2005/09/05",1015.5,1017.0,1013.7
"2005/09/06",1014.6,1016.8,1011.8
"2005/09/07",1006.9,1011.9,1003.9
"2005/09/08",1009.7,1015.9,1005.2
"2005/09/09",1018.3,1019.7,1015.8
"2005/09/10",1018.0,1019.3,1016.1
"2005/09/11",1017.7,1019.4,1015.8
"2005/09/12",1018.0,1019.7,1016.5
"2005/09/13",1014.8,1016.6,1013.1
"2005/09/14",1008.7,1014.6,1004.4
"2005/09/15",1013.8,1019.8,1005.8
"2005/09/16",1022.3,1024.3,1019.7
"2005/09/17",1023.9,1025.2,1022.9
"2005/09/18",1020.9,1023.4,1018.4
"2005/09/19",1015.7,1018.5,1013.0
"2005/09/20",1012.7,1013.9,1011.5
"2005/09/21",1014.6,1018.3,1011.5
"2005/09/22",1017.3,1018.8,1016.2
"2005/09/23",1014.4,1016.7,1012.8
"2005/09/24",1012.3,1014.5,1008.9
"2005/09/25",1007.2,1010.9,1003.8
"2005/09/26",1015.7,1019.4,1010.8
"2005/09/27",1020.8,1021.9,1019.1
"2005/09/28",1020.4,1021.7,1019.2
"2005/09/29",1021.9,1024.3,1020.1
"2005/09/30",1024.4,1026.0,1023.1
"2005/10/01",1018.6,1023.4,1014.1
"2005/10/02",1009.8,1014.1,1006.4
"2005/10/03",1016.5,1020.3,1010.0
"2005/10/04",1015.7,1019.5,1012.2
"2005/10/05",1017.7,1018.6,1015.6
"2005/10/06",1019.3,1021.4,1016.7
"2005/10/07",1019.6,1022.5,1014.6
"2005/10/08",1011.5,1014.7,1008.6
"2005/10/09",1020.2,1023.6,1013.9
"2005/10/10",1022.5,1024.2,1021.2
"2005/10/11",1021.7,1022.9,1020.2
"2005/10/12",1021.3,1023.4,1019.8
"2005/10/13",1022.4,1024.3,1021.0
"2005/10/14",1017.6,1021.2,1014.8
"2005/10/15",1011.5,1014.8,1007.6
"2005/10/16",1012.6,1017.1,1007.1
"2005/10/17",1017.2,1018.6,1015.5
"2005/10/18",1019.4,1020.9,1017.0
"2005/10/19",1020.7,1022.4,1016.0
"2005/10/20",1021.4,1023.1,1020.0
"2005/10/21",1016.0,1020.0,1011.4
"2005/10/22",1005.1,1011.4,1000.2
"2005/10/23",1003.4,1011.0, 997.8
"2005/10/24",1013.4,1015.7,1010.5
"2005/10/25",1019.0,1023.4,1015.6
"2005/10/26",1025.6,1027.0,1023.1
"2005/10/27",1024.0,1025.7,1022.1
"2005/10/28",1019.7,1023.2,1015.2
"2005/10/29",1010.3,1015.4,1007.0
"2005/10/30",1013.0,1015.1,1008.1
"2005/10/31",1016.5,1020.6,1013.0
"2005/11/01",1024.5,1026.5,1020.5
"2005/11/02",1025.5,1027.8,1024.1
"2005/11/03",1021.8,1024.3,1018.6
"2005/11/04",1018.2,1019.7,1016.9
"2005/11/05",1017.9,1019.4,1016.3
"2005/11/06",1014.8,1019.5,1007.5
"2005/11/07",1003.5,1009.5, 999.2
"2005/11/08",1009.6,1011.9,1006.2
"2005/11/09",1013.6,1016.0,1011.5
"2005/11/10",1018.4,1020.2,1015.9
"2005/11/11",1015.4,1018.0,1010.4
"2005/11/12",1013.1,1021.4,1007.1
"2005/11/13",1020.5,1024.2,1017.0
"2005/11/14",1015.3,1017.6,1013.1
"2005/11/15",1014.1,1015.6,1012.5
"2005/11/16",1016.5,1018.5,1014.4
"2005/11/17",1020.0,1021.7,1018.3
"2005/11/18",1020.8,1022.8,1018.9
"2005/11/19",1021.9,1024.1,1020.0
"2005/11/20",1024.4,1025.6,1023.2
"2005/11/21",1022.8,1025.4,1019.6
"2005/11/22",1020.3,1023.4,1018.3
"2005/11/23",1021.3,1024.1,1017.2
"2005/11/24",1014.3,1017.3,1012.0
"2005/11/25",1014.3,1016.1,1013.3
"2005/11/26",1015.9,1017.5,1013.8
"2005/11/27",1013.2,1015.8,1010.0
"2005/11/28",1015.9,1019.6,1009.1
"2005/11/29",1002.0,1009.3, 997.7
"2005/11/30",1010.1,1016.9,1004.4
"2005/12/01",1019.0,1021.0,1016.6
"2005/12/02",1013.3,1017.1,1011.2
"2005/12/03",1010.4,1013.3,1007.9
"2005/12/04",1006.1,1011.2, 994.9
"2005/12/05", 997.1,1002.0, 993.3
"2005/12/06",1008.6,1014.9,1001.9
"2005/12/07",1017.3,1019.4,1014.5
"2005/12/08",1018.0,1020.0,1015.8
"2005/12/09",1015.4,1016.8,1013.8
"2005/12/10",1013.7,1016.9,1010.6
"2005/12/11",1012.8,1014.6,1010.0
"2005/12/12",1006.9,1013.5,1000.8
"2005/12/13",1005.5,1008.7,1001.0
"2005/12/14",1010.9,1014.7,1008.5
"2005/12/15",1016.6,1019.4,1014.4
"2005/12/16",1013.7,1014.8,1012.1
"2005/12/17",1008.2,1014.0,1003.1
"2005/12/18",1009.1,1012.4,1003.0
"2005/12/19",1012.3,1018.4,1009.4
"2005/12/20",1019.6,1021.8,1017.3
"2005/12/21",1007.7,1017.6, 993.0
"2005/12/22", 991.5,1002.0, 985.8
"2005/12/23",1004.3,1006.0,1001.7
"2005/12/24",1009.8,1016.8,1004.3
"2005/12/25",1012.1,1017.3,1002.4
"2005/12/26",1007.5,1012.1,1001.7
"2005/12/27",1014.3,1017.0,1011.7
"2005/12/28",1021.2,1024.1,1016.8
"2005/12/29",1025.1,1027.1,1023.1
"2005/12/30",1021.1,1025.7,1015.1
"2005/12/31",1024.0,1028.2,1015.6
